Time,TemperatureF,DewpointF,PressureIn,WindDirection,WindDirectionDegrees,WindSpeedMPH,WindSpeedGustMPH,Humidity,HourlyPrecipIn,Conditions,Clouds,dailyrainin,SoftwareType,DateUTC
2013-06-15 00:00:00,76.8,74.3,29.90,SE,142,0.0,0.0,92,0.00,,SKC,0.00,VWS V14.01,2013-06-15 05:00:00,
2013-06-15 00:01:00,76.7,74.2,29.90,SE,142,0.0,0.0,92,0.00,,SKC,0.00,VWS V14.01,2013-06-15 05:01:00,
2013-06-15 00:06:00,76.6,74.1,29.89,SE,142,0.0,0.0,92,0.00,,SKC,0.00,VWS V14.01,2013-06-15 05:06:00,
2013-06-15 00:10:00,76.6,74.1,29.89,SE,142,0.0,0.0,92,0.00,,SKC,0.00,VWS V14.01,2013-06-15 05:10:00,
2013-06-15 00:11:00,76.5,74.0,29.89,SE,142,0.0,0.0,92,0.00,,SKC,0.00,VWS V14.01,2013-06-15 05:11:00,
2013-06-15 00:16:00,76.4,73.9,29.89,SE,142,0.0,0.0,92,0.00,,SKC,0.00,VWS V14.01,2013-06-15 05:16:00,
2013-06-15 00:20:00,76.4,73.9,29.89,SE,142,0.0,0.0,92,0.00,,SKC,0.00,VWS V14.01,2013-06-15 05:20:00,
2013-06-15 00:21:00,76.3,73.8,29.89,SE,142,0.0,0.0,92,0.00,,SKC,0.00,VWS V14.01,2013-06-15 05:21:00,
2013-06-15 00:26:00,76.2,73.7,29.90,SE,142,0.0,0.0,92,0.00,,SKC,0.00,VWS V14.01,2013-06-15 05:26:00,
2013-06-15 00:30:00,76.2,73.7,29.89,SE,142,0.0,0.0,92,0.00,,SKC,0.00,VWS V14.01,2013-06-15 05:30:00,
2013-06-15 00:31:00,76.1,73.6,29.89,SE,142,0.0,0.0,92,0.00,,SKC,0.00,VWS V14.01,2013-06-15 05:31:00,
2013-06-15 00:36:00,76.0,73.5,29.89,SE,142,0.0,0.0,92,0.00,,SKC,0.00,VWS V14.01,2013-06-15 05:36:00,
2013-06-15 00:40:00,76.0,73.5,29.89,SE,142,0.0,2.0,92,0.00,,SKC,0.00,VWS V14.01,2013-06-15 05:40:00,
2013-06-15 00:41:00,76.0,73.5,29.89,SE,142,0.0,0.0,92,0.00,,SKC,0.00,VWS V14.01,2013-06-15 05:41:00,
2013-06-15 00:46:00,75.9,73.7,29.90,SE,142,0.0,0.0,93,0.00,,SKC,0.00,VWS V14.01,2013-06-15 05:46:00,
2013-06-15 00:50:00,75.9,73.7,29.90,SE,142,0.0,0.0,93,0.00,,SKC,0.00,VWS V14.01,2013-06-15 05:50:00,
2013-06-15 00:51:00,75.9,73.7,29.90,SE,142,0.0,4.0,93,0.00,,SKC,0.00,VWS V14.01,2013-06-15 05:51:00,
2013-06-15 00:56:00,75.9,73.7,29.90,SE,142,0.0,4.0,93,0.00,,SKC,0.00,VWS V14.01,2013-06-15 05:56:00,
2013-06-15 01:00:00,75.9,73.7,29.90,SE,142,0.0,4.0,93,0.00,,SKC,0.00,VWS V14.01,2013-06-15 06:00:00,
2013-06-15 01:01:00,76.0,73.8,29.90,SE,142,0.0,2.0,93,0.00,,SKC,0.00,VWS V14.01,2013-06-15 06:01:00,
2013-06-15 01:06:00,75.9,73.7,29.91,SE,142,0.0,0.0,93,0.00,,SKC,0.00,VWS V14.01,2013-06-15 06:06:00,
2013-06-15 01:10:00,75.9,73.7,29.91,SE,142,0.0,2.0,93,0.00,,SKC,0.00,VWS V14.01,2013-06-15 06:10:00,
2013-06-15 01:11:00,75.9,73.7,29.91,SE,142,0.0,0.0,93,0.00,,SKC,0.00,VWS V14.01,2013-06-15 06:11:00,
2013-06-15 01:16:00,75.8,73.6,29.91,SE,142,0.0,0.0,93,0.00,,SKC,0.00,VWS V14.01,2013-06-15 06:16:00,
2013-06-15 01:20:00,75.8,73.6,29.91,SE,142,0.0,0.0,93,0.00,,SKC,0.00,VWS V14.01,2013-06-15 06:20:00,
2013-06-15 01:21:00,75.8,73.9,29.90,SE,142,0.0,0.0,94,0.00,,SKC,0.00,VWS V14.01,2013-06-15 06:21:00,
2013-06-15 01:26:00,75.8,73.9,29.90,SE,142,0.0,0.0,94,0.00,,SKC,0.00,VWS V14.01,2013-06-15 06:26:00,
2013-06-15 01:30:00,75.8,73.9,29.90,SE,142,0.0,0.0,94,0.00,,SKC,0.00,VWS V14.01,2013-06-15 06:30:00,
2013-06-15 01:31:00,75.8,73.9,29.90,SE,142,0.0,0.0,94,0.00,,SKC,0.00,VWS V14.01,2013-06-15 06:31:00,
2013-06-15 01:36:00,75.8,73.9,29.90,SE,142,0.0,0.0,94,0.00,,SKC,0.00,VWS V14.01,2013-06-15 06:36:00,
2013-06-15 01:40:00,75.8,73.9,29.90,SE,142,0.0,0.0,94,0.00,,SKC,0.00,VWS V14.01,2013-06-15 06:40:00,
2013-06-15 01:41:00,75.8,73.9,29.90,SE,142,0.0,0.0,94,0.00,,SKC,0.00,VWS V14.01,2013-06-15 06:41:00,
2013-06-15 01:46:00,75.8,73.9,29.90,SE,142,0.0,0.0,94,0.00,,SKC,0.00,VWS V14.01,2013-06-15 06:46:00,
2013-06-15 01:50:00,75.8,73.9,29.90,SE,142,0.0,0.0,94,0.00,,SKC,0.00,VWS V14.01,2013-06-15 06:50:00,
2013-06-15 01:51:00,75.8,73.9,29.90,SE,142,0.0,0.0,94,0.00,,SKC,0.00,VWS V14.01,2013-06-15 06:51:00,
2013-06-15 01:56:00,75.9,74.1,29.90,SE,142,0.0,0.0,94,0.00,,SKC,0.00,VWS V14.01,2013-06-15 06:56:00,
2013-06-15 02:00:00,75.9,74.1,29.90,SE,142,0.0,0.0,94,0.00,,SKC,0.00,VWS V14.01,2013-06-15 07:00:00,
2013-06-15 02:01:00,75.9,74.1,29.89,SE,142,0.0,0.0,94,0.00,,SKC,0.00,VWS V14.01,2013-06-15 07:01:00,
2013-06-15 02:06:00,75.9,74.1,29.89,SE,142,0.0,0.0,94,0.00,,SKC,0.00,VWS V14.01,2013-06-15 07:06:00,
2013-06-15 02:10:00,75.9,74.1,29.89,SE,142,0.0,0.0,94,0.00,,SKC,0.00,VWS V14.01,2013-06-15 07:10:00,
2013-06-15 02:11:00,75.9,74.4,29.89,SE,142,0.0,0.0,95,0.00,,SKC,0.00,VWS V14.01,2013-06-15 07:11:00,
2013-06-15 02:16:00,75.9,74.4,29.88,SE,142,0.0,0.0,95,0.00,,SKC,0.00,VWS V14.01,2013-06-15 07:16:00,
2013-06-15 02:20:00,75.9,74.4,29.88,SE,142,0.0,0.0,95,0.00,,SKC,0.00,VWS V14.01,2013-06-15 07:20:00,
2013-06-15 02:21:00,76.0,74.5,29.88,SE,142,0.0,1.0,95,0.00,,SKC,0.00,VWS V14.01,2013-06-15 07:21:00,
2013-06-15 02:26:00,76.0,74.5,29.88,SE,142,0.0,1.0,95,0.00,,SKC,0.00,VWS V14.01,2013-06-15 07:26:00,
2013-06-15 02:30:00,76.0,74.5,29.88,SE,142,0.0,1.0,95,0.00,,SKC,0.00,VWS V14.01,2013-06-15 07:30:00,
2013-06-15 02:31:00,76.0,74.5,29.88,SE,142,0.0,0.0,95,0.00,,SKC,0.00,VWS V14.01,2013-06-15 07:31:00,
2013-06-15 02:36:00,76.0,74.5,29.89,SE,142,0.0,0.0,95,0.00,,SKC,0.00,VWS V14.01,2013-06-15 07:36:00,
2013-06-15 02:40:00,76.0,74.5,29.89,SE,142,0.0,0.0,95,0.00,,SKC,0.00,VWS V14.01,2013-06-15 07:40:00,
2013-06-15 02:41:00,76.0,74.5,29.89,SE,142,0.0,0.0,95,0.00,,SKC,0.00,VWS V14.01,2013-06-15 07:41:00,
2013-06-15 02:46:00,76.0,74.5,29.89,SE,142,0.0,0.0,95,0.00,,SKC,0.00,VWS V14.01,2013-06-15 07:46:00,
2013-06-15 02:50:00,76.0,74.5,29.89,SE,142,0.0,0.0,95,0.00,,SKC,0.00,VWS V14.01,2013-06-15 07:50:00,
2013-06-15 02:51:00,76.0,74.5,29.89,SE,142,0.0,0.0,95,0.00,,SKC,0.00,VWS V14.01,2013-06-15 07:51:00,
2013-06-15 02:56:00,76.0,74.5,29.89,SE,142,0.0,0.0,95,0.00,,SKC,0.00,VWS V14.01,2013-06-15 07:56:00,
2013-06-15 03:00:00,76.0,74.5,29.89,SE,142,0.0,0.0,95,0.00,,SKC,0.00,VWS V14.01,2013-06-15 08:00:00,
2013-06-15 03:01:00,76.0,74.5,29.89,SE,142,0.0,0.0,95,0.00,,SKC,0.00,VWS V14.01,2013-06-15 08:01:00,
2013-06-15 03:06:00,76.0,74.5,29.89,SE,142,0.0,0.0,95,0.00,,SKC,0.00,VWS V14.01,2013-06-15 08:06:00,
2013-06-15 03:10:00,76.0,74.5,29.89,SE,142,0.0,0.0,95,0.00,,SKC,0.00,VWS V14.01,2013-06-15 08:10:00,
2013-06-15 03:11:00,76.1,74.6,29.89,SE,142,0.0,0.0,95,0.00,,SKC,0.00,VWS V14.01,2013-06-15 08:11:00,
2013-06-15 03:16:00,76.2,74.7,29.89,SE,142,0.0,0.0,95,0.00,,SKC,0.00,VWS V14.01,2013-06-15 08:16:00,
2013-06-15 03:20:00,76.2,74.7,29.89,SE,142,0.0,0.0,95,0.00,,SKC,0.00,VWS V14.01,2013-06-15 08:20:00,
2013-06-15 03:21:00,76.2,74.7,29.89,SE,142,0.0,4.0,95,0.00,,SKC,0.00,VWS V14.01,2013-06-15 08:21:00,
2013-06-15 03:26:00,76.3,74.8,29.89,SE,142,0.0,4.0,95,0.00,,SKC,0.00,VWS V14.01,2013-06-15 08:26:00,
2013-06-15 03:30:00,76.3,74.8,29.89,SE,142,0.0,4.0,95,0.00,,SKC,0.00,VWS V14.01,2013-06-15 08:30:00,
2013-06-15 03:31:00,76.4,74.9,29.89,SE,142,0.0,6.0,95,0.00,,SKC,0.00,VWS V14.01,2013-06-15 08:31:00,
2013-06-15 03:36:00,76.4,74.9,29.88,SE,142,0.0,6.0,95,0.00,,SKC,0.00,VWS V14.01,2013-06-15 08:36:00,
2013-06-15 03:40:00,76.4,74.9,29.88,SE,142,0.0,6.0,95,0.00,,SKC,0.00,VWS V14.01,2013-06-15 08:40:00,
2013-06-15 03:41:00,76.4,74.9,29.89,SE,142,0.0,6.0,95,0.00,,SKC,0.00,VWS V14.01,2013-06-15 08:41:00,
2013-06-15 03:46:00,76.4,74.9,29.89,SE,142,0.0,6.0,95,0.00,,SKC,0.00,VWS V14.01,2013-06-15 08:46:00,
2013-06-15 03:50:00,76.4,74.9,29.89,SE,142,0.0,6.0,95,0.00,,SKC,0.00,VWS V14.01,2013-06-15 08:50:00,
2013-06-15 03:51:00,76.4,74.9,29.89,SE,142,0.0,0.0,95,0.00,,SKC,0.00,VWS V14.01,2013-06-15 08:51:00,
2013-06-15 03:56:00,76.5,75.0,29.89,SE,142,0.0,0.0,95,0.00,,SKC,0.00,VWS V14.01,2013-06-15 08:56:00,
2013-06-15 04:00:00,76.5,75.0,29.89,SE,142,0.0,0.0,95,0.00,,SKC,0.00,VWS V14.01,2013-06-15 09:00:00,
2013-06-15 04:01:00,76.5,75.0,29.89,SE,142,0.0,0.0,95,0.00,,SKC,0.00,VWS V14.01,2013-06-15 09:01:00,
2013-06-15 04:06:00,76.5,75.0,29.89,SE,142,0.0,0.0,95,0.00,,SKC,0.00,VWS V14.01,2013-06-15 09:06:00,
2013-06-15 04:10:00,76.5,75.0,29.89,SE,142,0.0,0.0,95,0.00,,SKC,0.00,VWS V14.01,2013-06-15 09:10:00,
2013-06-15 04:11:00,76.5,75.0,29.89,SE,142,0.0,0.0,95,0.00,,SKC,0.00,VWS V14.01,2013-06-15 09:11:00,
2013-06-15 04:16:00,76.5,75.0,29.89,SE,142,0.0,0.0,95,0.00,,SKC,0.00,VWS V14.01,2013-06-15 09:16:00,
2013-06-15 04:20:00,76.5,75.0,29.89,SE,142,0.0,0.0,95,0.00,,SKC,0.00,VWS V14.01,2013-06-15 09:20:00,
2013-06-15 04:21:00,76.5,75.0,29.88,SE,142,0.0,0.0,95,0.00,,SKC,0.00,VWS V14.01,2013-06-15 09:21:00,
2013-06-15 04:26:00,76.4,74.9,29.89,SE,142,0.0,0.0,95,0.00,,SKC,0.00,VWS V14.01,2013-06-15 09:26:00,
2013-06-15 04:30:00,76.4,74.9,29.89,SE,142,0.0,0.0,95,0.00,,SKC,0.00,VWS V14.01,2013-06-15 09:30:00,
2013-06-15 04:31:00,76.4,74.9,29.89,SE,142,0.0,0.0,95,0.00,,SKC,0.00,VWS V14.01,2013-06-15 09:31:00,
2013-06-15 04:36:00,76.4,74.9,29.89,SE,142,0.0,0.0,95,0.00,,SKC,0.00,VWS V14.01,2013-06-15 09:36:00,
2013-06-15 04:40:00,76.4,74.9,29.89,SE,142,0.0,0.0,95,0.00,,SKC,0.00,VWS V14.01,2013-06-15 09:40:00,
2013-06-15 04:41:00,76.5,75.0,29.89,SE,142,0.0,0.0,95,0.00,,SKC,0.00,VWS V14.01,2013-06-15 09:41:00,
2013-06-15 04:46:00,76.5,75.0,29.89,SE,142,0.0,0.0,95,0.00,,SKC,0.00,VWS V14.01,2013-06-15 09:46:00,
2013-06-15 04:50:00,76.5,75.0,29.89,SE,142,0.0,0.0,95,0.00,,SKC,0.00,VWS V14.01,2013-06-15 09:50:00,
2013-06-15 04:51:00,76.5,75.0,29.89,SE,142,0.0,0.0,95,0.00,,SKC,0.00,VWS V14.01,2013-06-15 09:51:00,
2013-06-15 04:56:00,76.6,75.1,29.89,SE,142,0.0,0.0,95,0.00,,SKC,0.00,VWS V14.01,2013-06-15 09:56:00,
2013-06-15 05:00:00,76.5,75.0,29.89,SE,142,0.0,0.0,95,0.00,,SKC,0.00,VWS V14.01,2013-06-15 10:00:00,
2013-06-15 05:01:00,76.6,75.1,29.89,SE,142,0.0,0.0,95,0.00,,SKC,0.00,VWS V14.01,2013-06-15 10:01:00,
2013-06-15 05:06:00,76.6,75.1,29.89,SE,142,0.0,0.0,95,0.00,,SKC,0.00,VWS V14.01,2013-06-15 10:06:00,
2013-06-15 05:10:00,76.6,75.1,29.89,SE,142,0.0,0.0,95,0.00,,SKC,0.00,VWS V14.01,2013-06-15 10:10:00,
2013-06-15 05:11:00,76.6,75.1,29.89,SE,142,0.0,0.0,95,0.00,,SKC,0.00,VWS V14.01,2013-06-15 10:11:00,
2013-06-15 05:16:00,76.6,75.1,29.89,SE,142,0.0,0.0,95,0.00,,SKC,0.00,VWS V14.01,2013-06-15 10:16:00,
2013-06-15 05:20:00,76.6,75.1,29.89,SE,142,0.0,0.0,95,0.00,,SKC,0.00,VWS V14.01,2013-06-15 10:20:00,
2013-06-15 05:21:00,76.6,75.1,29.89,SE,142,0.0,0.0,95,0.00,,SKC,0.00,VWS V14.01,2013-06-15 10:21:00,
2013-06-15 05:26:00,76.5,75.0,29.89,SE,142,0.0,0.0,95,0.00,,SKC,0.00,VWS V14.01,2013-06-15 10:26:00,
2013-06-15 05:30:00,76.6,75.1,29.89,SE,142,0.0,0.0,95,0.00,,SKC,0.00,VWS V14.01,2013-06-15 10:30:00,
2013-06-15 05:31:00,76.5,75.0,29.89,SE,142,0.0,0.0,95,0.00,,SKC,0.00,VWS V14.01,2013-06-15 10:31:00,
2013-06-15 05:36:00,76.5,75.0,29.89,SE,142,0.0,0.0,95,0.00,,SKC,0.00,VWS V14.01,2013-06-15 10:36:00,
2013-06-15 05:40:00,76.5,75.0,29.89,SE,142,0.0,0.0,95,0.00,,SKC,0.00,VWS V14.01,2013-06-15 10:40:00,
2013-06-15 05:41:00,76.5,75.0,29.90,SE,142,0.0,0.0,95,0.00,,SKC,0.00,VWS V14.01,2013-06-15 10:41:00,
2013-06-15 05:45:00,76.5,75.0,29.90,SE,142,0.0,0.0,95,0.00,,SKC,0.00,VWS V14.01,2013-06-15 10:45:00,
2013-06-15 05:50:00,76.5,75.0,29.90,SE,142,0.0,0.0,95,0.00,,SKC,0.00,VWS V14.01,2013-06-15 10:50:00,
2013-06-15 05:55:00,76.5,75.0,29.90,SE,142,0.0,0.0,95,0.00,,SKC,0.00,VWS V14.01,2013-06-15 10:55:00,
2013-06-15 06:00:00,76.5,75.0,29.90,SE,142,0.0,0.0,95,0.00,,SKC,0.00,VWS V14.01,2013-06-15 11:00:00,
2013-06-15 06:05:00,76.4,74.9,29.90,SE,142,0.0,0.0,95,0.00,,SKC,0.00,VWS V14.01,2013-06-15 11:05:00,
2013-06-15 06:10:00,76.4,74.9,29.90,SE,142,0.0,0.0,95,0.00,,SKC,0.00,VWS V14.01,2013-06-15 11:10:00,
2013-06-15 06:15:00,76.4,74.9,29.90,SE,142,0.0,0.0,95,0.00,,SKC,0.00,VWS V14.01,2013-06-15 11:15:00,
2013-06-15 06:20:00,76.3,74.8,29.90,SE,142,0.0,0.0,95,0.00,,SKC,0.00,VWS V14.01,2013-06-15 11:20:00,
2013-06-15 06:25:00,76.3,74.8,29.90,SE,142,0.0,0.0,95,0.00,,SKC,0.00,VWS V14.01,2013-06-15 11:25:00,
2013-06-15 06:30:00,76.2,74.7,29.91,SE,142,0.0,0.0,95,0.00,,SKC,0.00,VWS V14.01,2013-06-15 11:30:00,
2013-06-15 06:35:00,76.2,74.7,29.91,SE,145,0.0,0.0,95,0.00,,SKC,0.00,VWS V14.01,2013-06-15 11:35:00,
2013-06-15 06:40:00,76.1,74.6,29.91,SE,145,0.0,0.0,95,0.00,,SKC,0.00,VWS V14.01,2013-06-15 11:40:00,
2013-06-15 06:45:00,76.0,74.5,29.91,SE,145,0.0,0.0,95,0.00,,SKC,0.00,VWS V14.01,2013-06-15 11:45:00,
2013-06-15 06:50:00,75.9,74.4,29.92,SE,145,0.0,0.0,95,0.00,,SKC,0.00,VWS V14.01,2013-06-15 11:50:00,
2013-06-15 06:55:00,76.0,74.5,29.92,SE,145,0.0,0.0,95,0.00,,SKC,0.00,VWS V14.01,2013-06-15 11:55:00,
2013-06-15 07:00:00,76.1,74.9,29.92,SE,145,0.0,0.0,96,0.00,,SKC,0.00,VWS V14.01,2013-06-15 12:00:00,
2013-06-15 07:05:00,76.2,75.0,29.92,SSE,150,0.0,0.0,96,0.00,,SKC,0.00,VWS V14.01,2013-06-15 12:05:00,
2013-06-15 07:10:00,76.3,75.1,29.92,SE,138,0.0,0.0,96,0.00,,SKC,0.00,VWS V14.01,2013-06-15 12:10:00,
2013-06-15 07:15:00,76.4,75.2,29.92,SE,138,0.0,0.0,96,0.00,,SKC,0.00,VWS V14.01,2013-06-15 12:15:00,
2013-06-15 07:20:00,76.4,75.2,29.92,SE,138,0.0,0.0,96,0.00,,SKC,0.00,VWS V14.01,2013-06-15 12:20:00,
2013-06-15 07:21:00,76.5,75.3,29.92,SE,138,0.0,0.0,96,0.00,,SKC,0.00,VWS V14.01,2013-06-15 12:21:00,
2013-06-15 07:26:00,76.6,75.4,29.92,SE,138,0.0,0.0,96,0.00,,SKC,0.00,VWS V14.01,2013-06-15 12:26:00,
2013-06-15 07:30:00,76.6,75.4,29.92,SE,138,0.0,0.0,96,0.00,,SKC,0.00,VWS V14.01,2013-06-15 12:30:00,
2013-06-15 07:31:00,76.7,75.5,29.93,SE,138,0.0,0.0,96,0.00,,SKC,0.00,VWS V14.01,2013-06-15 12:31:00,
2013-06-15 07:36:00,76.8,75.6,29.93,SE,138,0.0,0.0,96,0.00,,SKC,0.00,VWS V14.01,2013-06-15 12:36:00,
2013-06-15 07:40:00,76.9,75.7,29.93,SE,138,0.0,0.0,96,0.00,,SKC,0.00,VWS V14.01,2013-06-15 12:40:00,
2013-06-15 07:45:00,77.0,75.8,29.93,SE,138,0.0,0.0,96,0.00,,SKC,0.00,VWS V14.01,2013-06-15 12:45:00,
2013-06-15 07:50:00,77.1,75.6,29.93,SE,138,0.0,0.0,95,0.00,,SKC,0.00,VWS V14.01,2013-06-15 12:50:00,
2013-06-15 07:55:00,77.1,75.6,29.93,SE,138,0.0,5.0,95,0.00,,SKC,0.00,VWS V14.01,2013-06-15 12:55:00,
2013-06-15 08:00:00,77.2,75.7,29.93,SE,138,0.0,1.0,95,0.00,,SKC,0.00,VWS V14.01,2013-06-15 13:00:00,
2013-06-15 08:05:00,77.3,75.8,29.93,SE,138,0.0,2.0,95,0.00,,SKC,0.00,VWS V14.01,2013-06-15 13:05:00,
2013-06-15 08:10:00,77.5,76.0,29.93,SE,138,0.0,0.0,95,0.00,,SKC,0.00,VWS V14.01,2013-06-15 13:10:00,
2013-06-15 08:15:00,77.5,76.0,29.94,SE,138,0.0,0.0,95,0.00,,SKC,0.00,VWS V14.01,2013-06-15 13:15:00,
2013-06-15 08:20:00,77.8,76.3,29.94,SE,138,0.0,0.0,95,0.00,,SKC,0.00,VWS V14.01,2013-06-15 13:20:00,
2013-06-15 08:25:00,77.9,76.0,29.94,SE,138,0.0,0.0,94,0.00,,SKC,0.00,VWS V14.01,2013-06-15 13:25:00,
2013-06-15 08:30:00,78.1,76.2,29.94,SE,138,0.0,0.0,94,0.00,,SKC,0.00,VWS V14.01,2013-06-15 13:30:00,
2013-06-15 08:35:00,78.3,76.4,29.94,SE,138,0.0,0.0,94,0.00,,SKC,0.00,VWS V14.01,2013-06-15 13:35:00,
2013-06-15 08:40:00,78.5,76.6,29.94,SE,138,0.0,2.0,94,0.00,,SKC,0.00,VWS V14.01,2013-06-15 13:40:00,
2013-06-15 08:45:00,78.5,76.0,29.94,SE,138,0.0,2.0,92,0.00,,SKC,0.00,VWS V14.01,2013-06-15 13:45:00,
2013-06-15 08:50:00,78.5,76.0,29.94,SE,138,0.0,0.0,92,0.00,,SKC,0.00,VWS V14.01,2013-06-15 13:50:00,
2013-06-15 08:55:00,78.7,76.2,29.94,SE,138,0.0,0.0,92,0.00,,SKC,0.00,VWS V14.01,2013-06-15 13:55:00,
2013-06-15 09:00:00,78.7,76.2,29.94,SE,138,0.0,0.0,92,0.00,,SKC,0.00,VWS V14.01,2013-06-15 14:00:00,
2013-06-15 09:01:00,78.7,75.9,29.94,SE,138,0.0,1.0,91,0.00,,SKC,0.00,VWS V14.01,2013-06-15 14:01:00,
2013-06-15 09:06:00,78.8,75.6,29.94,SE,138,0.0,1.0,90,0.00,,SKC,0.00,VWS V14.01,2013-06-15 14:06:00,
2013-06-15 09:10:00,78.8,75.6,29.94,SE,138,0.0,1.0,90,0.00,,SKC,0.00,VWS V14.01,2013-06-15 14:10:00,
2013-06-15 09:11:00,78.9,75.7,29.95,SE,138,0.0,3.0,90,0.00,,SKC,0.00,VWS V14.01,2013-06-15 14:11:00,
2013-06-15 09:16:00,79.2,76.0,29.95,SE,138,0.0,5.0,90,0.00,,SKC,0.00,VWS V14.01,2013-06-15 14:16:00,
2013-06-15 09:20:00,79.2,76.0,29.95,SE,138,0.0,5.0,90,0.00,,SKC,0.00,VWS V14.01,2013-06-15 14:20:00,
2013-06-15 09:21:00,79.5,76.3,29.95,SE,138,0.0,2.0,90,0.00,,SKC,0.00,VWS V14.01,2013-06-15 14:21:00,
2013-06-15 09:26:00,79.7,76.2,29.94,SE,138,0.0,2.0,89,0.00,,SKC,0.00,VWS V14.01,2013-06-15 14:26:00,
2013-06-15 09:30:00,79.7,76.2,29.94,SE,138,0.0,2.0,89,0.00,,SKC,0.00,VWS V14.01,2013-06-15 14:30:00,
2013-06-15 09:31:00,79.8,75.9,29.94,SE,138,0.0,5.0,88,0.00,,SKC,0.00,VWS V14.01,2013-06-15 14:31:00,
2013-06-15 09:36:00,79.9,76.0,29.95,SE,139,0.0,5.0,88,0.00,,SKC,0.00,VWS V14.01,2013-06-15 14:36:00,
2013-06-15 09:40:00,79.9,76.0,29.95,SE,139,0.0,5.0,88,0.00,,SKC,0.00,VWS V14.01,2013-06-15 14:40:00,
2013-06-15 09:41:00,80.1,75.9,29.95,SE,146,0.0,8.0,87,0.00,,SKC,0.00,VWS V14.01,2013-06-15 14:41:00,
2013-06-15 09:46:00,80.2,76.3,29.95,SE,146,0.0,8.0,88,0.00,,SKC,0.00,VWS V14.01,2013-06-15 14:46:00,
2013-06-15 09:50:00,80.2,76.0,29.95,SE,146,0.0,8.0,87,0.00,,SKC,0.00,VWS V14.01,2013-06-15 14:50:00,
2013-06-15 09:51:00,80.3,76.1,29.95,SE,146,0.0,4.0,87,0.00,,SKC,0.00,VWS V14.01,2013-06-15 14:51:00,
2013-06-15 09:55:00,80.3,75.7,29.95,SE,146,0.0,5.0,86,0.00,,SKC,0.00,VWS V14.01,2013-06-15 14:55:00,
2013-06-15 10:00:00,80.5,75.9,29.95,SSE,147,0.0,6.0,86,0.00,,SKC,0.00,VWS V14.01,2013-06-15 15:00:00,
2013-06-15 10:05:00,80.7,76.1,29.94,SSE,147,0.0,6.0,86,0.00,,SKC,0.00,VWS V14.01,2013-06-15 15:05:00,
2013-06-15 10:10:00,80.9,76.0,29.95,SSE,147,0.0,1.0,85,0.00,,SKC,0.00,VWS V14.01,2013-06-15 15:10:00,
2013-06-15 10:15:00,81.0,75.7,29.95,SSE,147,1.0,7.0,84,0.00,,SKC,0.00,VWS V14.01,2013-06-15 15:15:00,
2013-06-15 10:20:00,81.1,75.8,29.95,SE,143,0.0,6.0,84,0.00,,SKC,0.00,VWS V14.01,2013-06-15 15:20:00,
2013-06-15 10:25:00,81.1,75.4,29.95,SE,146,0.0,7.0,83,0.00,,SKC,0.00,VWS V14.01,2013-06-15 15:25:00,
2013-06-15 10:30:00,81.2,75.6,29.95,SE,146,0.0,5.0,83,0.00,,SKC,0.00,VWS V14.01,2013-06-15 15:30:00,
2013-06-15 10:35:00,81.3,75.3,29.95,SE,146,0.0,7.0,82,0.00,,SKC,0.00,VWS V14.01,2013-06-15 15:35:00,
2013-06-15 10:40:00,81.4,75.4,29.95,SE,146,0.0,0.0,82,0.00,,SKC,0.00,VWS V14.01,2013-06-15 15:40:00,
2013-06-15 10:45:00,81.5,75.5,29.95,SSE,147,0.0,7.0,82,0.00,,SKC,0.00,VWS V14.01,2013-06-15 15:45:00,
2013-06-15 10:50:00,81.6,75.2,29.95,SSE,147,0.0,4.0,81,0.00,,SKC,0.00,VWS V14.01,2013-06-15 15:50:00,
2013-06-15 10:55:00,81.7,75.7,29.95,SSE,147,0.0,4.0,82,0.00,,SKC,0.00,VWS V14.01,2013-06-15 15:55:00,
2013-06-15 11:00:00,81.9,75.9,29.96,SSE,147,4.0,4.0,82,0.00,,SKC,0.00,VWS V14.01,2013-06-15 16:00:00,
2013-06-15 11:05:00,82.1,76.1,29.96,SSE,147,0.0,4.0,82,0.00,,SKC,0.00,VWS V14.01,2013-06-15 16:05:00,
2013-06-15 11:10:00,82.5,76.1,29.96,SSE,147,0.0,4.0,81,0.00,,SKC,0.00,VWS V14.01,2013-06-15 16:10:00,
2013-06-15 11:15:00,83.0,75.8,29.96,SSE,161,0.0,8.0,79,0.00,,SKC,0.00,VWS V14.01,2013-06-15 16:15:00,
2013-06-15 11:20:00,83.3,76.1,29.96,SSE,161,0.0,0.0,79,0.00,,SKC,0.00,VWS V14.01,2013-06-15 16:20:00,
2013-06-15 11:25:00,83.5,75.9,29.96,SSE,161,0.0,5.0,78,0.00,,SKC,0.00,VWS V14.01,2013-06-15 16:25:00,
2013-06-15 11:30:00,83.5,75.5,29.96,SSE,163,0.0,7.0,77,0.00,,SKC,0.00,VWS V14.01,2013-06-15 16:30:00,
2013-06-15 11:35:00,83.6,75.6,29.96,South,169,6.0,7.0,77,0.00,,SKC,0.00,VWS V14.01,2013-06-15 16:35:00,
2013-06-15 11:40:00,83.7,74.9,29.96,South,171,6.0,7.0,75,0.00,,SKC,0.00,VWS V14.01,2013-06-15 16:40:00,
2013-06-15 11:45:00,84.0,75.2,29.96,South,174,3.0,7.0,75,0.00,,SKC,0.00,VWS V14.01,2013-06-15 16:45:00,
2013-06-15 11:50:00,84.5,75.3,29.95,South,174,0.0,5.0,74,0.00,,SKC,0.00,VWS V14.01,2013-06-15 16:50:00,
2013-06-15 11:55:00,85.0,75.4,29.95,South,174,0.0,5.0,73,0.00,,SKC,0.00,VWS V14.01,2013-06-15 16:55:00,
2013-06-15 12:00:00,85.5,75.4,29.95,South,174,0.0,4.0,72,0.00,,SKC,0.00,VWS V14.01,2013-06-15 17:00:00,
2013-06-15 12:05:00,85.4,74.9,29.95,South,177,0.0,8.0,71,0.00,,SKC,0.00,VWS V14.01,2013-06-15 17:05:00,
2013-06-15 12:10:00,85.4,75.8,29.95,South,178,6.0,6.0,73,0.00,,SKC,0.00,VWS V14.01,2013-06-15 17:10:00,
2013-06-15 12:15:00,85.3,75.2,29.94,South,188,0.0,8.0,72,0.00,,SKC,0.00,VWS V14.01,2013-06-15 17:15:00,
2013-06-15 12:20:00,85.4,75.3,29.95,South,188,0.0,5.0,72,0.00,,SKC,0.00,VWS V14.01,2013-06-15 17:20:00,
2013-06-15 12:25:00,85.4,74.5,29.95,South,188,0.0,5.0,70,0.00,,SKC,0.00,VWS V14.01,2013-06-15 17:25:00,
2013-06-15 12:30:00,85.5,74.6,29.94,South,188,0.0,0.0,70,0.00,,SKC,0.00,VWS V14.01,2013-06-15 17:30:00,
2013-06-15 12:35:00,85.7,74.8,29.94,South,187,0.0,5.0,70,0.00,,SKC,0.00,VWS V14.01,2013-06-15 17:35:00,
2013-06-15 12:40:00,85.9,74.6,29.94,South,187,0.0,3.0,69,0.00,,SKC,0.00,VWS V14.01,2013-06-15 17:40:00,
2013-06-15 12:45:00,86.1,75.2,29.94,South,188,0.0,4.0,70,0.00,,SKC,0.00,VWS V14.01,2013-06-15 17:45:00,
2013-06-15 12:50:00,86.3,74.5,29.94,South,188,0.0,4.0,68,0.00,,SKC,0.00,VWS V14.01,2013-06-15 17:50:00,
2013-06-15 12:55:00,86.5,75.1,29.94,South,188,0.0,4.0,69,0.00,,SKC,0.00,VWS V14.01,2013-06-15 17:55:00,
2013-06-15 13:00:00,86.7,75.3,29.94,South,188,0.0,1.0,69,0.00,,SKC,0.00,VWS V14.01,2013-06-15 18:00:00,
2013-06-15 13:05:00,86.9,75.5,29.93,South,188,0.0,1.0,69,0.00,,SKC,0.00,VWS V14.01,2013-06-15 18:05:00,
2013-06-15 13:10:00,87.1,75.3,29.93,South,188,0.0,1.0,68,0.00,,SKC,0.00,VWS V14.01,2013-06-15 18:10:00,
2013-06-15 13:15:00,87.2,75.8,29.93,South,188,0.0,1.0,69,0.00,,SKC,0.00,VWS V14.01,2013-06-15 18:15:00,
2013-06-15 13:20:00,87.2,75.4,29.93,South,188,0.0,0.0,68,0.00,,SKC,0.00,VWS V14.01,2013-06-15 18:20:00,
2013-06-15 13:25:00,87.2,75.4,29.93,South,187,0.0,4.0,68,0.00,,SKC,0.00,VWS V14.01,2013-06-15 18:25:00,
2013-06-15 13:30:00,87.0,74.7,29.92,South,187,0.0,2.0,67,0.00,,SKC,0.00,VWS V14.01,2013-06-15 18:30:00,
2013-06-15 13:35:00,86.8,75.0,29.92,South,190,0.0,5.0,68,0.00,,SKC,0.00,VWS V14.01,2013-06-15 18:35:00,
2013-06-15 13:40:00,86.6,75.2,29.92,South,190,0.0,1.0,69,0.00,,SKC,0.00,VWS V14.01,2013-06-15 18:40:00,
2013-06-15 13:45:00,86.5,75.6,29.92,South,190,0.0,3.0,70,0.00,,SKC,0.00,VWS V14.01,2013-06-15 18:45:00,
2013-06-15 13:50:00,86.6,75.2,29.92,South,190,0.0,2.0,69,0.00,,SKC,0.00,VWS V14.01,2013-06-15 18:50:00,
2013-06-15 13:55:00,86.6,75.2,29.92,South,190,0.0,5.0,69,0.00,,SKC,0.00,VWS V14.01,2013-06-15 18:55:00,
2013-06-15 14:00:00,86.7,74.4,29.92,South,190,1.0,6.0,67,0.00,,SKC,0.00,VWS V14.01,2013-06-15 19:00:00,
2013-06-15 14:05:00,86.7,74.9,29.92,South,190,0.0,6.0,68,0.00,,SKC,0.00,VWS V14.01,2013-06-15 19:05:00,
2013-06-15 14:10:00,86.9,75.5,29.92,South,190,0.0,1.0,69,0.00,,SKC,0.00,VWS V14.01,2013-06-15 19:10:00,
2013-06-15 14:15:00,87.0,75.2,29.92,South,190,0.0,1.0,68,0.00,,SKC,0.00,VWS V14.01,2013-06-15 19:15:00,
2013-06-15 14:20:00,87.1,75.3,29.92,South,190,0.0,1.0,68,0.00,,SKC,0.00,VWS V14.01,2013-06-15 19:20:00,
2013-06-15 14:25:00,87.2,75.4,29.92,South,190,0.0,1.0,68,0.00,,SKC,0.00,VWS V14.01,2013-06-15 19:25:00,
2013-06-15 14:30:00,87.3,74.6,29.92,South,188,0.0,6.0,66,0.00,,SKC,0.00,VWS V14.01,2013-06-15 19:30:00,
2013-06-15 14:35:00,87.4,74.2,29.92,South,185,2.0,7.0,65,0.00,,SKC,0.00,VWS V14.01,2013-06-15 19:35:00,
2013-06-15 14:40:00,87.8,75.0,29.91,South,184,4.0,4.0,66,0.00,,SKC,0.00,VWS V14.01,2013-06-15 19:40:00,
2013-06-15 14:45:00,88.6,75.3,29.91,South,185,0.0,5.0,65,0.00,,SKC,0.00,VWS V14.01,2013-06-15 19:45:00,
2013-06-15 14:50:00,89.4,74.7,29.91,South,185,0.0,4.0,62,0.00,,SKC,0.00,VWS V14.01,2013-06-15 19:50:00,
2013-06-15 14:55:00,89.9,75.1,29.91,South,181,0.0,6.0,62,0.00,,SKC,0.00,VWS V14.01,2013-06-15 19:55:00,
2013-06-15 15:00:00,90.1,73.3,29.91,South,185,0.0,7.0,58,0.00,,SKC,0.00,VWS V14.01,2013-06-15 20:00:00,
2013-06-15 15:05:00,90.2,73.9,29.91,South,184,0.0,7.0,59,0.00,,SKC,0.00,VWS V14.01,2013-06-15 20:05:00,
2013-06-15 15:10:00,90.2,72.9,29.90,South,184,0.0,3.0,57,0.00,,SKC,0.00,VWS V14.01,2013-06-15 20:10:00,
2013-06-15 15:15:00,90.3,72.5,29.90,South,183,0.0,3.0,56,0.00,,SKC,0.00,VWS V14.01,2013-06-15 20:15:00,
2013-06-15 15:20:00,90.4,73.1,29.90,South,184,2.0,3.0,57,0.00,,SKC,0.00,VWS V14.01,2013-06-15 20:20:00,
2013-06-15 15:25:00,90.6,73.8,29.90,South,184,0.0,3.0,58,0.00,,SKC,0.00,VWS V14.01,2013-06-15 20:25:00,
2013-06-15 15:30:00,90.9,73.0,29.89,South,183,0.0,3.0,56,0.00,,SKC,0.00,VWS V14.01,2013-06-15 20:30:00,
2013-06-15 15:35:00,91.1,73.8,29.89,South,183,0.0,3.0,57,0.00,,SKC,0.00,VWS V14.01,2013-06-15 20:35:00,
2013-06-15 15:40:00,91.3,72.9,29.89,South,183,0.0,1.0,55,0.00,,SKC,0.00,VWS V14.01,2013-06-15 20:40:00,
2013-06-15 15:45:00,91.2,72.8,29.89,South,183,0.0,1.0,55,0.00,,SKC,0.00,VWS V14.01,2013-06-15 20:45:00,
2013-06-15 15:50:00,91.1,73.8,29.89,South,182,0.0,1.0,57,0.00,,SKC,0.00,VWS V14.01,2013-06-15 20:50:00,
2013-06-15 15:55:00,91.1,74.3,29.88,South,182,0.0,2.0,58,0.00,,SKC,0.00,VWS V14.01,2013-06-15 20:55:00,
2013-06-15 16:00:00,91.1,73.8,29.89,South,182,0.0,2.0,57,0.00,,SKC,0.00,VWS V14.01,2013-06-15 21:00:00,
2013-06-15 16:05:00,91.2,73.8,29.88,South,182,0.0,5.0,57,0.00,,SKC,0.00,VWS V14.01,2013-06-15 21:05:00,
2013-06-15 16:10:00,91.1,73.8,29.88,South,182,0.0,3.0,57,0.00,,SKC,0.00,VWS V14.01,2013-06-15 21:10:00,
2013-06-15 16:15:00,91.0,73.1,29.88,South,182,1.0,3.0,56,0.00,,SKC,0.00,VWS V14.01,2013-06-15 21:15:00,
2013-06-15 16:20:00,90.9,73.0,29.88,South,182,5.0,5.0,56,0.00,,SKC,0.00,VWS V14.01,2013-06-15 21:20:00,
2013-06-15 16:25:00,91.0,72.6,29.88,South,182,0.0,6.0,55,0.00,,SKC,0.00,VWS V14.01,2013-06-15 21:25:00,
2013-06-15 16:30:00,91.0,72.6,29.88,South,182,0.0,1.0,55,0.00,,SKC,0.00,VWS V14.01,2013-06-15 21:30:00,
2013-06-15 16:35:00,91.1,72.7,29.88,South,182,0.0,2.0,55,0.00,,SKC,0.00,VWS V14.01,2013-06-15 21:35:00,
2013-06-15 16:40:00,91.1,73.2,29.87,South,182,0.0,5.0,56,0.00,,SKC,0.00,VWS V14.01,2013-06-15 21:40:00,
2013-06-15 16:45:00,91.3,72.9,29.87,South,182,0.0,5.0,55,0.00,,SKC,0.00,VWS V14.01,2013-06-15 21:45:00,
2013-06-15 16:50:00,91.5,72.5,29.87,South,182,0.0,0.0,54,0.00,,SKC,0.00,VWS V14.01,2013-06-15 21:50:00,
2013-06-15 16:55:00,91.6,73.2,29.87,South,182,0.0,1.0,55,0.00,,SKC,0.00,VWS V14.01,2013-06-15 21:55:00,
2013-06-15 17:00:00,91.7,73.2,29.87,South,182,0.0,0.0,55,0.00,,SKC,0.00,VWS V14.01,2013-06-15 22:00:00,
2013-06-15 17:05:00,91.7,72.7,29.87,South,182,0.0,0.0,54,0.00,,SKC,0.00,VWS V14.01,2013-06-15 22:05:00,
2013-06-15 17:10:00,91.5,73.6,29.87,South,182,0.0,1.0,56,0.00,,SKC,0.00,VWS V14.01,2013-06-15 22:10:00,
2013-06-15 17:15:00,91.6,73.7,29.86,South,182,0.0,1.0,56,0.00,,SKC,0.00,VWS V14.01,2013-06-15 22:15:00,
2013-06-15 17:20:00,91.9,74.0,29.86,South,182,0.0,0.0,56,0.00,,SKC,0.00,VWS V14.01,2013-06-15 22:20:00,
2013-06-15 17:25:00,92.4,73.9,29.86,South,182,0.0,0.0,55,0.00,,SKC,0.00,VWS V14.01,2013-06-15 22:25:00,
2013-06-15 17:30:00,92.8,74.3,29.86,South,181,0.0,3.0,55,0.00,,SKC,0.00,VWS V14.01,2013-06-15 22:30:00,
2013-06-15 17:35:00,93.0,73.3,29.86,SSE,156,0.0,3.0,53,0.00,,SKC,0.00,VWS V14.01,2013-06-15 22:35:00,
2013-06-15 17:40:00,93.1,72.9,29.86,SSE,156,0.0,0.0,52,0.00,,SKC,0.00,VWS V14.01,2013-06-15 22:40:00,
2013-06-15 17:45:00,93.2,73.5,29.86,SSE,156,0.0,0.0,53,0.00,,SKC,0.00,VWS V14.01,2013-06-15 22:45:00,
2013-06-15 17:50:00,93.3,73.6,29.86,SSE,155,0.0,2.0,53,0.00,,SKC,0.00,VWS V14.01,2013-06-15 22:50:00,
2013-06-15 17:55:00,93.3,73.1,29.86,SSE,155,0.0,2.0,52,0.00,,SKC,0.00,VWS V14.01,2013-06-15 22:55:00,
2013-06-15 18:00:00,93.2,73.0,29.85,SSE,147,0.0,2.0,52,0.00,,SKC,0.00,VWS V14.01,2013-06-15 23:00:00,
2013-06-15 18:05:00,92.9,73.8,29.85,SSE,147,0.0,2.0,54,0.00,,SKC,0.00,VWS V14.01,2013-06-15 23:05:00,
2013-06-15 18:10:00,92.8,73.7,29.85,SSE,147,0.0,0.0,54,0.00,,SKC,0.00,VWS V14.01,2013-06-15 23:10:00,
2013-06-15 18:15:00,92.7,73.6,29.85,SSE,147,0.0,0.0,54,0.00,,SKC,0.00,VWS V14.01,2013-06-15 23:15:00,
2013-06-15 18:20:00,92.6,73.5,29.85,SSE,147,0.0,1.0,54,0.00,,SKC,0.00,VWS V14.01,2013-06-15 23:20:00,
2013-06-15 18:25:00,92.4,73.3,29.85,SSE,147,0.0,1.0,54,0.00,,SKC,0.00,VWS V14.01,2013-06-15 23:25:00,
2013-06-15 18:30:00,92.1,73.1,29.85,SSE,147,0.0,0.0,54,0.00,,SKC,0.00,VWS V14.01,2013-06-15 23:30:00,
2013-06-15 18:35:00,91.9,73.4,29.84,SSE,147,0.0,0.0,55,0.00,,SKC,0.00,VWS V14.01,2013-06-15 23:35:00,
2013-06-15 18:40:00,91.7,73.2,29.84,SSE,147,0.0,1.0,55,0.00,,SKC,0.00,VWS V14.01,2013-06-15 23:40:00,
2013-06-15 18:45:00,91.4,73.5,29.84,SSE,147,0.0,1.0,56,0.00,,SKC,0.00,VWS V14.01,2013-06-15 23:45:00,
2013-06-15 18:50:00,91.3,73.4,29.84,SSE,148,0.0,0.0,56,0.00,,SKC,0.00,VWS V14.01,2013-06-15 23:50:00,
2013-06-15 18:55:00,91.1,72.7,29.85,SSE,148,0.0,1.0,55,0.00,,SKC,0.00,VWS V14.01,2013-06-15 23:55:00,
2013-06-15 19:00:00,90.9,72.5,29.85,SSE,148,0.0,0.0,55,0.00,,SKC,0.00,VWS V14.01,2013-06-16 00:00:00,
2013-06-15 19:05:00,90.6,72.8,29.85,SSE,148,0.0,4.0,56,0.00,,SKC,0.00,VWS V14.01,2013-06-16 00:05:00,
2013-06-15 19:10:00,90.2,72.9,29.85,SSE,148,0.0,1.0,57,0.00,,SKC,0.00,VWS V14.01,2013-06-16 00:10:00,
2013-06-15 19:15:00,89.9,72.6,29.85,SSE,148,0.0,1.0,57,0.00,,SKC,0.00,VWS V14.01,2013-06-16 00:15:00,
2013-06-15 19:20:00,89.6,72.9,29.85,SSE,148,0.0,0.0,58,0.00,,SKC,0.00,VWS V14.01,2013-06-16 00:20:00,
2013-06-15 19:25:00,89.3,74.1,29.85,SSE,148,0.0,0.0,61,0.00,,SKC,0.00,VWS V14.01,2013-06-16 00:25:00,
2013-06-15 19:30:00,89.0,74.8,29.85,SSE,148,2.0,2.0,63,0.00,,SKC,0.00,VWS V14.01,2013-06-16 00:30:00,
2013-06-15 19:35:00,88.7,75.0,29.85,SE,144,0.0,5.0,64,0.00,,SKC,0.00,VWS V14.01,2013-06-16 00:35:00,
2013-06-15 19:40:00,88.5,74.8,29.85,SE,144,0.0,0.0,64,0.00,,SKC,0.00,VWS V14.01,2013-06-16 00:40:00,
2013-06-15 19:45:00,88.3,75.1,29.85,SE,144,0.0,0.0,65,0.00,,SKC,0.00,VWS V14.01,2013-06-16 00:45:00,
2013-06-15 19:50:00,88.0,74.8,29.85,SE,144,0.0,0.0,65,0.00,,SKC,0.00,VWS V14.01,2013-06-16 00:50:00,
2013-06-15 19:55:00,87.8,75.0,29.85,SE,144,0.0,0.0,66,0.00,,SKC,0.00,VWS V14.01,2013-06-16 00:55:00,
2013-06-15 20:00:00,87.6,74.8,29.85,SE,144,0.0,0.0,66,0.00,,SKC,0.00,VWS V14.01,2013-06-16 01:00:00,
2013-06-15 20:05:00,87.4,74.7,29.86,SE,144,0.0,1.0,66,0.00,,SKC,0.00,VWS V14.01,2013-06-16 01:05:00,
2013-06-15 20:10:00,87.1,74.8,29.86,SE,144,0.0,0.0,67,0.00,,SKC,0.00,VWS V14.01,2013-06-16 01:10:00,
2013-06-15 20:15:00,86.9,74.6,29.85,SE,144,0.0,0.0,67,0.00,,SKC,0.00,VWS V14.01,2013-06-16 01:15:00,
2013-06-15 20:20:00,86.6,74.8,29.86,SE,144,0.0,0.0,68,0.00,,SKC,0.00,VWS V14.01,2013-06-16 01:20:00,
2013-06-15 20:25:00,86.4,74.6,29.86,SE,146,0.0,0.0,68,0.00,,SKC,0.00,VWS V14.01,2013-06-16 01:25:00,
2013-06-15 20:30:00,86.2,74.8,29.86,SE,132,0.0,0.0,69,0.00,,SKC,0.00,VWS V14.01,2013-06-16 01:30:00,
2013-06-15 20:35:00,86.0,74.7,29.86,SE,132,0.0,0.0,69,0.00,,SKC,0.00,VWS V14.01,2013-06-16 01:35:00,
2013-06-15 20:40:00,85.8,74.5,29.86,SE,132,0.0,0.0,69,0.00,,SKC,0.00,VWS V14.01,2013-06-16 01:40:00,
2013-06-15 20:45:00,85.6,74.7,29.85,SE,132,0.0,0.0,70,0.00,,SKC,0.00,VWS V14.01,2013-06-16 01:45:00,
2013-06-15 20:50:00,85.4,74.9,29.85,SE,131,0.0,0.0,71,0.00,,SKC,0.00,VWS V14.01,2013-06-16 01:50:00,
2013-06-15 20:55:00,85.1,74.6,29.85,SE,131,0.0,0.0,71,0.00,,SKC,0.00,VWS V14.01,2013-06-16 01:55:00,
2013-06-15 21:00:00,84.9,74.4,29.85,SE,131,0.0,0.0,71,0.00,,SKC,0.00,VWS V14.01,2013-06-16 02:00:00,
2013-06-15 21:05:00,84.7,74.7,29.86,SE,131,0.0,0.0,72,0.00,,SKC,0.00,VWS V14.01,2013-06-16 02:05:00,
2013-06-15 21:10:00,84.5,74.5,29.86,SE,131,0.0,0.0,72,0.00,,SKC,0.00,VWS V14.01,2013-06-16 02:10:00,
2013-06-15 21:15:00,84.3,74.7,29.87,SE,131,0.0,0.0,73,0.00,,SKC,0.00,VWS V14.01,2013-06-16 02:15:00,
2013-06-15 21:20:00,84.1,74.5,29.87,SE,131,0.0,0.0,73,0.00,,SKC,0.00,VWS V14.01,2013-06-16 02:20:00,
2013-06-15 21:25:00,84.0,74.4,29.87,SE,131,0.0,0.0,73,0.00,,SKC,0.00,VWS V14.01,2013-06-16 02:25:00,
2013-06-15 21:30:00,83.9,74.7,29.87,SE,131,0.0,0.0,74,0.00,,SKC,0.00,VWS V14.01,2013-06-16 02:30:00,
2013-06-15 21:35:00,83.9,74.7,29.88,SE,131,0.0,0.0,74,0.00,,SKC,0.00,VWS V14.01,2013-06-16 02:35:00,
2013-06-15 21:40:00,83.8,74.6,29.87,SE,131,0.0,0.0,74,0.00,,SKC,0.00,VWS V14.01,2013-06-16 02:40:00,
2013-06-15 21:45:00,83.8,74.6,29.87,SE,131,0.0,0.0,74,0.00,,SKC,0.00,VWS V14.01,2013-06-16 02:45:00,
2013-06-15 21:50:00,83.8,74.2,29.88,SE,131,0.0,1.0,73,0.00,,SKC,0.00,VWS V14.01,2013-06-16 02:50:00,
2013-06-15 21:55:00,83.8,74.6,29.88,SE,131,0.0,1.0,74,0.00,,SKC,0.00,VWS V14.01,2013-06-16 02:55:00,
2013-06-15 22:00:00,83.7,74.5,29.88,SE,131,0.0,0.0,74,0.00,,SKC,0.00,VWS V14.01,2013-06-16 03:00:00,
2013-06-15 22:05:00,83.5,73.9,29.88,SE,131,0.0,4.0,73,0.00,,SKC,0.00,VWS V14.01,2013-06-16 03:05:00,
2013-06-15 22:10:00,83.3,73.8,29.89,SE,132,0.0,3.0,73,0.00,,SKC,0.00,VWS V14.01,2013-06-16 03:10:00,
2013-06-15 22:15:00,83.1,73.1,29.89,SE,131,0.0,4.0,72,0.00,,SKC,0.00,VWS V14.01,2013-06-16 03:15:00,
2013-06-15 22:20:00,82.9,72.9,29.89,SE,131,0.0,1.0,72,0.00,,SKC,0.00,VWS V14.01,2013-06-16 03:20:00,
2013-06-15 22:24:00,82.7,72.8,29.89,SE,131,0.0,1.0,72,0.00,,SKC,0.00,VWS V14.01,2013-06-16 03:24:00,
2013-06-15 22:29:00,82.4,72.5,29.89,SE,131,0.0,0.0,72,0.00,,SKC,0.00,VWS V14.01,2013-06-16 03:29:00,
2013-06-15 22:30:00,82.6,72.7,29.89,SE,131,0.0,1.0,72,0.00,,SKC,0.00,VWS V14.01,2013-06-16 03:30:00,
2013-06-15 22:34:00,82.2,72.3,29.90,SE,131,0.0,0.0,72,0.00,,SKC,0.00,VWS V14.01,2013-06-16 03:34:00,
2013-06-15 22:39:00,82.0,72.5,29.90,SE,131,0.0,3.0,73,0.00,,SKC,0.00,VWS V14.01,2013-06-16 03:39:00,
2013-06-15 22:40:00,82.1,72.2,29.90,SE,131,2.0,2.0,72,0.00,,SKC,0.00,VWS V14.01,2013-06-16 03:40:00,
2013-06-15 22:44:00,81.7,72.2,29.90,SE,131,0.0,3.0,73,0.00,,SKC,0.00,VWS V14.01,2013-06-16 03:44:00,
2013-06-15 22:49:00,81.4,71.9,29.90,SE,131,0.0,1.0,73,0.00,,SKC,0.00,VWS V14.01,2013-06-16 03:49:00,
2013-06-15 22:50:00,81.6,72.1,29.90,SE,131,0.0,3.0,73,0.00,,SKC,0.00,VWS V14.01,2013-06-16 03:50:00,
2013-06-15 22:54:00,81.2,71.7,29.90,SE,131,0.0,1.0,73,0.00,,SKC,0.00,VWS V14.01,2013-06-16 03:54:00,
2013-06-15 22:59:00,81.0,71.5,29.90,SE,131,0.0,0.0,73,0.00,,SKC,0.00,VWS V14.01,2013-06-16 03:59:00,
2013-06-15 23:00:00,81.1,71.6,29.90,SE,131,0.0,1.0,73,0.00,,SKC,0.00,VWS V14.01,2013-06-16 04:00:00,
2013-06-15 23:01:00,80.9,71.4,29.91,SE,131,0.0,0.0,73,0.00,,SKC,0.00,VWS V14.01,2013-06-16 04:01:00,
2013-06-15 23:06:00,80.7,71.2,29.91,SE,131,0.0,1.0,73,0.00,,SKC,0.00,VWS V14.01,2013-06-16 04:06:00,
2013-06-15 23:10:00,80.7,71.2,29.91,SE,131,0.0,1.0,73,0.00,,SKC,0.00,VWS V14.01,2013-06-16 04:10:00,
2013-06-15 23:11:00,80.5,71.5,29.91,SE,131,0.0,5.0,74,0.00,,SKC,0.00,VWS V14.01,2013-06-16 04:11:00,
2013-06-15 23:16:00,80.4,71.4,29.91,SE,129,0.0,7.0,74,0.00,,SKC,0.00,VWS V14.01,2013-06-16 04:16:00,
2013-06-15 23:20:00,80.4,71.4,29.91,SE,129,0.0,7.0,74,0.00,,SKC,0.00,VWS V14.01,2013-06-16 04:20:00,
2013-06-15 23:21:00,80.3,71.7,29.91,SE,134,0.0,9.0,75,0.00,,SKC,0.00,VWS V14.01,2013-06-16 04:21:00,
2013-06-15 23:26:00,80.2,71.6,29.91,SE,140,0.0,9.0,75,0.00,,SKC,0.00,VWS V14.01,2013-06-16 04:26:00,
2013-06-15 23:30:00,80.2,71.6,29.91,SE,140,1.0,9.0,75,0.00,,SKC,0.00,VWS V14.01,2013-06-16 04:30:00,
2013-06-15 23:31:00,80.1,71.5,29.92,SE,140,0.0,6.0,75,0.00,,SKC,0.00,VWS V14.01,2013-06-16 04:31:00,
2013-06-15 23:36:00,80.0,71.4,29.92,SE,140,0.0,6.0,75,0.00,,SKC,0.00,VWS V14.01,2013-06-16 04:36:00,
2013-06-15 23:40:00,80.0,71.4,29.92,SE,140,0.0,6.0,75,0.00,,SKC,0.00,VWS V14.01,2013-06-16 04:40:00,
2013-06-15 23:41:00,79.8,71.6,29.92,SE,140,0.0,2.0,76,0.00,,SKC,0.00,VWS V14.01,2013-06-16 04:41:00,
2013-06-15 23:46:00,79.7,71.5,29.92,SE,141,6.0,6.0,76,0.00,,SKC,0.00,VWS V14.01,2013-06-16 04:46:00,
2013-06-15 23:50:00,79.7,71.5,29.92,SE,141,6.0,6.0,76,0.00,,SKC,0.00,VWS V14.01,2013-06-16 04:50:00,
2013-06-15 23:51:00,79.5,71.7,29.92,SE,142,0.0,6.0,77,0.00,,SKC,0.00,VWS V14.01,2013-06-16 04:51:00,
2013-06-15 23:56:00,79.3,71.5,29.91,SE,142,0.0,6.0,77,0.00,,SKC,0.00,VWS V14.01,2013-06-16 04:56:00,